Lid_Strength_Index
9 9 9 9 9 9 9 9 9 9 9 9 9 8 7 5 5 5 5 5 5 4 4 3 3 3 2 1 0 1 1 2 1 2 2 2 1 1 0 -0 -0 -0 -1
10 10 9 9 10 9 9 9 10 10 10 10 10 9 8 6 5 6 6 6 6 5 5 4 4 3 2 3 2 1 2 1 1 3 3 5 3 2 1 0 0 0 -0
10 10 9 10 9 9 10 10 10 10 10 10 9 9 7 7 7 8 8 7 7 6 5 5 4 4 4 3 2 2 3 3 1 1 3 6 6 4 2 1 1 1 0
9 9 9 9 10 10 9 10 10 10 10 10 10 10 10 11 10 9 8 8 7 7 6 5 5 5 5 4 4 3 2 3 3 2 1 2 2 5 6 3 2 1 1
8 8 8 9 9 9 10 10 10 10 9 9 9 10 10 10 9 9 9 8 8 7 7 6 7 6 6 5 5 5 4 3 3 3 2 2 2 2 4 6 4 2 1
7 7 7 7 8 8 9 9 10 10 10 10 10 10 11 11 11 10 10 10 9 9 8 8 8 7 7 7 6 6 6 6 5 4 4 3 3 4 4 5 4 4 2
7 7 7 8 9 10 10 10 10 11 11 11 11 10 11 11 11 11 12 12 11 10 10 9 9 8 8 7 7 7 7 7 7 6 4 4 3 2 3 3 4 4 3
7 8 9 9 10 10 10 11 11 11 11 11 11 11 11 11 11 12 12 12 12 11 10 10 10 9 9 8 8 8 7 6 7 7 6 5 3 4 2 3 4 5 4
8 9 10 10 10 10 11 11 12 11 11 12 12 12 12 12 12 11 12 12 11 11 11 11 11 10 9 9 9 8 8 7 6 6 6 6 4 2 2 2 2 3 6
9 11 11 11 11 10 10 10 11 11 11 12 12 12 12 12 12 12 13 13 12 12 12 12 11 10 10 10 9 9 8 8 7 6 6 6 5 3 1 1 1 2 4
12 11 11 11 11 10 11 11 11 12 12 12 12 12 13 12 12 13 13 13 13 12 12 12 12 11 11 11 10 10 10 8 8 7 7 6 5 5 2 1 1 2 2
12 11 11 11 11 11 11 11 11 12 12 12 12 12 12 13 13 13 14 13 13 12 12 12 12 12 12 11 11 11 10 10 10 9 7 6 5 5 4 1 2 2 2
12 12 11 12 12 12 12 12 12 12 12 12 12 12 13 13 13 14 13 13 13 13 13 13 12 12 12 12 11 11 11 10 10 10 9 7 6 6 4 3 2 2 2
12 12 12 12 12 13 13 13 13 12 13 12 13 13 14 14 14 13 14 14 14 14 13 13 13 13 13 13 13 12 11 11 10 9 9 8 7 6 4 3 2 2 2
12 12 13 13 13 13 13 13 13 14 14 14 15 15 14 14 14 14 14 14 14 14 14 15 14 14 14 14 14 14 13 13 12 11 10 9 10 9 7 4 3 2 2
13 13 13 12 12 12 12 13 13 14 14 14 15 15 15 15 15 15 15 15 15 15 16 16 16 16 14 15 15 15 16 15 15 14 13 13 12 11 12 12 12 12 6
13 12 12 12 12 12 12 13 13 13 14 15 15 15 15 16 16 16 16 16 16 15 16 17 17 17 16 15 16 16 16 17 17 16 16 15 14 13 13 13 13 13 13
12 12 12 12 12 11 11 11 12 13 14 15 15 15 16 16 16 16 17 16 15 16 16 16 16 17 16 15 16 17 17 18 18 18 17 17 16 15 15 14 15 15 15
13 13 12 13 12 11 11 11 12 13 14 15 15 15 16 17 17 17 17 16 16 16 16 17 17 17 17 15 16 17 18 19 19 19 18 18 18 17 16 18 18 17 17
14 14 13 12 12 11 11 11 12 13 15 15 15 15 16 16 16 15 16 15 15 16 16 16 17 17 18 16 16 17 18 20 20 19 19 18 17 17 17 19 19 20 18
13 12 12 13 12 11 11 12 13 14 13 14 15 15 15 14 14 14 14 15 15 15 16 16 16 16 16 16 16 17 19 19 20 20 21 20 19 18 18 18 19 19 18
13 12 12 13 12 12 12 13 13 12 12 13 14 15 15 14 14 14 14 15 15 16 16 16 16 15 16 16 16 17 18 19 20 21 20 20 19 19 19 19 19 19 19
13 12 13 13 12 12 12 13 13 12 13 13 14 14 14 14 14 14 14 15 15 16 16 16 17 17 16 16 16 16 17 17 19 19 19 19 19 19 20 20 20 20 20
13 13 13 13 13 12 12 12 12 12 13 13 14 14 15 15 14 14 14 14 15 16 17 17 17 17 16 16 16 17 17 18 19 19 19 19 19 20 20 20 20 20 20
13 13 14 14 14 13 13 13 13 13 14 14 14 14 15 15 15 15 15 15 15 15 16 16 16 17 18 17 16 17 17 18 19 19 19 20 20 21 21 20 21 20 20
14 14 14 14 14 14 14 14 14 13 14 15 15 15 16 16 16 16 16 15 15 15 15 15 16 16 16 16 16 17 17 18 18 19 20 21 21 21 21 21 21 21 21